Powrót do katalogu

THOR BURNER 2 R/B

AktywnySSO
NORAD 7817·ROCKET BODY·🇺🇸 United States

Wystrzelony May 24, 1975 z Vandenberg Space Force Base

Loading…

Następne Przeloty (najbliższe 24 godziny)

TLE

ŚwieżeSource: Space-Track

Epoka: Sep 14, 2026, 12:37 UTC

1 07817U 75043B   26257.52625926  .00000036  00000-0  36810-4 0  9992
2 07817  98.6674 101.2615 0052497 212.4716 147.3227 14.19846841376076

Śledź THOR BURNER 2 R/B w czasie rzeczywistym z AllMySat

Download on the App Store